Regional Weather Roundup
Issued by NWS Charleston, SC

Current Version | Previous Version | Graphics & Text | Print | Product List | Glossary On
Versions: 1 2 3 4 5 6 7 8 9 10 11 12 13 14 15 16 17 18 19 20 21 22 23 24 25 26 27 28 29 30 31 32 33 34 35 36 37 38 39 40 41 42 43 44 45 46 47 48 49 50
000
ASUS42 KCHS 270412
RWRCHS

REGIONAL WEATHER ROUNDUP
NATIONAL WEATHER SERVICE CHARLESTON SC
1200 AM EDT MON APR 27 2015

NOTE: "FAIR" INDICATES FEW OR NO CLOUDS BELOW 12,000 FEET WITH NO
SIGNIFICANT WEATHER AND/OR OBSTRUCTIONS TO VISIBILITY.

NOT ALL STATIONS ARE QUALITY CONTROLLED BY THE NATIONAL
WEATHER SERVICE. USE DATA WITH CAUTION...ESPECIALLY
DEWPOINT OBSERVATIONS.

SCZ027-030-031-034>040-042>050-270500-
...SOUTHEAST SOUTH CAROLINA...

CITY           SKY/WX    TMP DP  RH WIND       PRES   REMARKS
N CHARLESTON   MOCLDY    61  56  83 N10       29.74R
WATERFRONT PRK NOT AVBL
MOUNT PLEASANT CLOUDY    61  57  88 MISG      29.73S
PINOPOLIS      NOT AVBL
MONCKS CORNER  CLOUDY    59  54  82 NE13      29.75R
SUMMERVILLE    RAIN      59  59 100 N8        29.75R
BEAUFORT MCAS  CLOUDY    66  59  78 N14       29.72R
BEAUFORT ARPT  MOCLDY    68  63  83 NE10      29.70R
HILTON HEAD IS CLOUDY    70  64  83 NE12      29.71R
WALTERBORO     LGT RAIN  59  55  88 NE7       29.74S
ALLENDALE      MOCLDY    59  57  94 VRB5G12   29.74R

...SOUTHERN MIDLANDS AND PEE DEE...

CITY           SKY/WX    TMP DP  RH WIND       PRES   REMARKS
GEORGETOWN     NOT AVBL
KINGSTREE      NOT AVBL
ORANGEBURG     CLOUDY    57  50  77 NE8       29.77R
BARNWELL       FAIR      59  55  88 N13       29.76R
AIKEN          FAIR      54  48  82 NE7       29.80S
MANNING        CLOUDY    54  46  76 NE8       29.77R
COLUMBIA       MOCLDY    57  47  69 E8        29.79R
SUMTER         PTCLDY    53  49  84 NE8       29.77S
FLORENCE       MOCLDY    53  49  86 N8        29.79R
MYRTLE BEACH   CLOUDY    55  48  76 N10       29.79F
N MYRTLE BEACH CLOUDY    54  50  86 N6        29.76S

$$

GAZ063-065-086>088-099>101-113>116-118-119-134>141-150-270500-
...SOUTHEAST GEORGIA...

CITY           SKY/WX    TMP DP  RH WIND       PRES   REMARKS
SAVANNAH ARPT  CLOUDY    72  57  59 W3        29.67R
HUNTER AAF     CLOUDY    71  60  68 W6        29.64S
FORT STEWART   CLOUDY    72  60  66 SW6       29.66S
STATESBORO       N/A     71  62  73 NE12G20   29.69R
SYLVANIA       MOCLDY    64  61  88 NE7       29.72R
CLAXTON        FAIR      70  63  78 W3        29.68S

...CSRA...CENTRAL AND FAR SOUTHEAST GEORGIA...

CITY           SKY/WX    TMP DP  RH WIND       PRES   REMARKS
THOMSON        PTCLDY    61  57  86 NE8       29.81R
AUGUSTA-BUSH   PTCLDY    59  52  77 NE12      29.76R
AUGUSTA-DANIEL PTCLDY    61  52  72 NE7       29.77R
SWAINSBORO     NOT AVBL
VIDALIA        CLOUDY    72  61  68 CALM      29.69S
EASTMAN        FAIR      67  61  81 CALM      29.73R
HAZLEHURST     FAIR      73  64  72 CALM      29.70R
ALMA           CLOUDY    74  64  71 CALM      29.70S
WAYCROSS       MOCLDY    76  65  69 W5        29.70S
JESUP          FAIR      72  68  88 W3        29.69F
BAXLEY         FAIR      75  64  69 W3        29.69S
BRUNSWICK      CLOUDY    73  63  68 CALM      29.69S
SAINT SIMONS   CLOUDY    75  61  61 SW7       29.69S

$$

SCZ027-028-034-036>038-045-046-048>050-GAZ119-141-270500-
...LAKE AND SUPPLEMENTAL COASTAL OBSERVATIONS...

STATION/POSITION TIME  TEMP    WIND        PRES    WAVE   SWELL
                       AIR SEA DIR/SP/G            HT/PER HT/PER/DIR
                 (UTC) (F)     (DEG/KT/KT) (MB)    (FT/S) (FT/S/D)
UPR LAKE MARION  NOT AVBL
WINYAH BAY       NOT AVBL
LAKE MURRAY      0300   56      50/  4/  8 1008.1R
ACE BASIN NERRS  NOT AVBL
FORT PULASKI     0300   78 71  240/  6/ 10 1004.7F
SAPELO ISLAND    0300   76     250/  4     1005.0S

$$

ANZ835-935-AMZ111-154-330-350-352-354-370-450-454-472-270500-
...C-MAN AND BUOY OBSERVATIONS...

STATION/POSITION TIME  TEMP    WIND        PRES    WAVE   SWELL
                       AIR SEA DIR/SP/G            HT/PER HT/PER/DIR
                 (UTC) (F)     (DEG/KT/KT) (MB)    (FT/S) (FT/S/D)
BUOY 41004       0350   66 71   40/ 21/ 25 1004.5R   5/ 5   2/11
BUOY 41008       0350   75 71  260/  8/ 10 1005.2R   1/ 5   2/170/ 5
FOLLY BEACH CMAN 0300   66      50/ 18/ 21 1006.0R
CAPERS NEARSHORE 0308   64      50/ 19/ 23 1006.4R
FRIPP NEARSHORE  0300   69      60/ 17/ 19 1004.8R


STATION/POSITION TIME  TEMP    WIND        PRES    WAVE   SWELL
                       AIR SEA DIR/SP/G            HT/PER HT/PER/DIR
                 (UTC) (F)     (DEG/KT/KT) (MB)    (FT/S) (FT/S/D)
5E ST. MARYS GA  0321      70                N/A     1/ 5
FRYING PAN BUOY  0350   61 70   30/ 16/ 19 1007.0R   5/ 5   2/190/ 8
BUOY 41025       0350   58 77   10/ 19/ 23 1005.8R   7/10   5/ 60/10
CAPE LOOKOUT NC  0300   54      10/ 10/ 12 1006.8R
BUOY 41002       0350   69 71   70/  8/ 10 1004.3F   7/ 8   7/240/ 8
BUOY 41010       0320   79 78  210/ 12/ 14 1006.4F
ST AUGUSTINE FL  0400   77 68  250/  8/ 11 1007.2R


$$


USA.gov is the U.S. government's official web portal to all federal, state and local government web resources and services.